Location: ?ejkovice
(49.0137°N, 14.3821°E)
Time: 12:42:22
(UTC+00:00)

Cosmos 968 Rocket - Pass Details

Date: 04 August 2024
Orbit: 738 x 767 km, 74.0° (Epoch: 15 September)

Event Time Altitude Azimuth Distance (km) Brightness Sun altitude
Rises 19:03:15 0° 344° (NNW) 3,238 7.6 -4.6°
Reaches altitude 10° 19:06:36 10° 6° (N) 2,303 6.4 -5.1°
Maximum altitude 19:09:46 16° 44° (NE) 1,910 5.5 -5.5°
Drops below altitude 10° 19:12:55 10° 82° (E) 2,283 5.5 -6.0°
Enters shadow 19:14:56 - 97° (E) 2,805 5.9 -6.2°
